Location: Vilnius
(54.6830°N, 25.3170°E)
Time: 16:55:02
(UTC+03:00)

ISS - Visible Passes

Search period start: 20 May 2018 00:00
Search period end: 30 May 2018 00:00
Orbit: 402 x 407 km, 51.6° (Epoch: 20 May)

Date Brightness Start Highest point End Pass type
(mag) Time Alt. Az. Time Alt. Az. Time Alt. Az.
20 May -3.5 01:06:25 37° SSW 01:07:01 41° SSE 01:10:08 10° E visible
20 May -3.6 02:40:04 10° W 02:43:13 46° S 02:46:23 10° ESE visible
20 May -2.6 04:16:40 10° W 04:19:17 22° SSW 04:21:53 10° SSE visible
20 May -1.9 22:37:46 10° SSE 22:39:08 12° SE 22:40:30 10° ESE visible
21 May -3.2 00:11:56 10° SW 00:14:57 34° SSE 00:17:57 10° E visible
21 May -3.7 01:47:56 10° WSW 01:51:07 49° S 01:54:18 10° ESE visible
21 May -3.0 03:24:22 10° W 03:27:15 29° SSW 03:30:09 10° SE visible
21 May -2.9 23:20:05 10° SW 23:22:53 26° SSE 23:25:41 10° E visible
22 May -3.7 00:55:49 10° WSW 00:58:59 48° S 01:02:09 10° E visible
22 May -3.3 02:32:08 10° W 02:35:11 37° SSW 02:38:14 10° SE visible
22 May -2.0 04:09:14 10° WSW 04:11:03 14° SW 04:12:52 10° S visible
22 May -2.4 22:28:25 10° SSW 22:30:52 20° SSE 22:33:18 10° ESE visible
23 May -3.6 00:03:43 10° WSW 00:06:52 44° S 00:10:00 10° E visible
23 May -3.6 01:39:56 10° W 01:43:04 44° S 01:46:13 10° ESE visible
23 May -2.5 03:16:36 10° WSW 03:19:05 20° SSW 03:21:32 10° SSE visible
23 May -3.3 23:11:41 10° SW 23:14:44 37° SSE 23:17:47 10° E visible
24 May -3.7 00:47:45 10° W 00:50:56 49° S 00:54:06 10° ESE visible
24 May -2.9 02:24:13 10° W 02:27:02 27° SSW 02:27:48 24° S visible
24 May -2.9 22:19:44 10° SW 22:22:38 29° SSE 22:25:31 10° E visible
24 May -3.7 23:55:35 10° WSW 23:58:46 49° S 00:01:56 10° ESE visible
25 May -3.2 01:31:55 10° W 01:34:56 34° SSW 01:35:35 31° S visible
25 May -3.5 23:03:26 10° WSW 23:06:35 46° S 23:09:44 10° E visible
26 May -3.5 00:39:40 10° W 00:42:48 42° SSW 00:44:27 23° SE visible
26 May -1.6 02:16:28 10° WSW 02:17:03 13° WSW 02:17:03 13° WSW visible
26 May -3.6 23:47:27 10° W 23:50:37 47° S 23:53:34 11° ESE visible
27 May -2.5 01:23:58 10° W 01:26:10 23° SW 01:26:10 23° SW visible
27 May -3.6 22:55:14 10° WSW 22:58:25 49° S 23:01:36 10° ESE visible
28 May -3.0 00:31:37 10° W 00:34:34 31° SSW 00:35:24 27° S visible
28 May -3.3 23:39:19 10° W 23:42:24 39° SSW 23:44:41 16° SE visible
29 May -1.7 01:16:15 10° WSW 01:17:17 14° SW 01:17:17 14° SW visible
29 May -3.5 22:47:02 10° W 22:50:12 46° S 22:53:21 10° ESE visible
